CW6538 Cattolica IT current weather conditions

sailwx.info

Wind from 019 at 4 knots gusting 11

Air temperature 28.3° C
Dewpoint 19.8° C

Last reported at 2016-Jul-23 08:54 UTC.
Time now 2016-Jul-23 09:18 UTC

Location: N 43°58' E 012°44'.
View on Google Maps.

See reports from other nearby stations

  
Tides and Currents Weather Stations Pressure Air Temp Water Temp Dewpoint Dewpoint Depression Visibility Wind Speed Wind Dir Waves Ship Positions
date/time (UTC)wind fromknots sea level pressurealtimeterstation pressurevisibilityair tempwater tempwave heightnotes
2016-Jul-23 08:54 019 4 gusting 11 28.3
2016-Jul-23 08:49 342 5 gusting 9 28.9
2016-Jul-23 08:44 344 5 gusting 10 28.9
2016-Jul-23 08:39 355 6 gusting 10 28.9
2016-Jul-23 08:34 342 6 gusting 10 28.3
2016-Jul-23 08:29 360 6 gusting 9 28.9
2016-Jul-23 08:24 347 6 gusting 9 28.9
2016-Jul-23 08:19 340 5 gusting 9 28.9
2016-Jul-23 08:14 332 6 gusting 9 28.9
2016-Jul-23 08:09 344 5 gusting 7 28.9
2016-Jul-23 08:03 334 5 gusting 6 28.9
2016-Jul-23 07:58 011 4 gusting 7 28.9
2016-Jul-23 07:54 320 6 gusting 10 30.0
2016-Jul-23 07:49 220 6 gusting 13 30.0
2016-Jul-23 07:44 217 6 gusting 13 30.0
2016-Jul-23 07:39 192 6 gusting 12 30.0
2016-Jul-23 07:34 231 5 gusting 11 30.0
2016-Jul-23 07:29 180 6 gusting 11 30.0
2016-Jul-23 07:24 218 4 gusting 8 30.0
2016-Jul-23 07:19 232 5 gusting 10 30.0
2016-Jul-23 07:14 263 6 gusting 10 30.0
2016-Jul-23 07:08 218 6 gusting 9 30.0
2016-Jul-23 07:04 228 5 gusting 10 29.4
2016-Jul-23 06:59 215 4 gusting 12 29.4
2016-Jul-23 06:54 167 6 gusting 12 29.4
2016-Jul-23 06:49 200 7 gusting 11 29.4
2016-Jul-23 06:44 247 6 gusting 8 29.4
2016-Jul-23 06:39 213 4 gusting 8 28.9
2016-Jul-23 06:33 205 3 gusting 8 28.3
2016-Jul-23 06:29 198 0 gusting 5 28.3
2016-Jul-23 06:24 230 4 gusting 5 27.8
2016-Jul-23 06:19 221 1 gusting 5 27.2
2016-Jul-23 06:13 200 27.2
2016-Jul-23 06:08 200 26.7
2016-Jul-23 06:04 200 26.7
2016-Jul-23 05:59 200 26.1
2016-Jul-23 05:54 200 26.1
2016-Jul-23 05:49 200 26.1
2016-Jul-23 05:44 200 25.6
2016-Jul-23 05:39 200 25.6
2016-Jul-23 05:34 200 25.6
2016-Jul-23 05:29 292 25.6
2016-Jul-23 05:24 292 25.6
2016-Jul-23 05:19 292 25.6
2016-Jul-23 05:14 292 25.6
2016-Jul-23 05:08 292 25.0
2016-Jul-23 05:04 292 25.0
2016-Jul-23 04:59 292 25.0
2016-Jul-23 04:54 292 25.6
2016-Jul-23 04:49 292 25.6
2016-Jul-23 04:43 292 25.6
2016-Jul-23 04:39 292 25.6
2016-Jul-23 04:34 292 25.6
2016-Jul-23 04:29 292 25.6
2016-Jul-23 04:23 292 0 gusting 3 25.6
2016-Jul-23 04:19 292 1 gusting 4 26.1
2016-Jul-23 04:14 292 1 gusting 5 26.1
2016-Jul-23 04:09 292 1 gusting 5 26.1
2016-Jul-23 04:03 296 3 gusting 5 26.1
2016-Jul-23 03:59 274 2 gusting 5 25.6
2016-Jul-23 03:54 267 3 gusting 6 25.6
2016-Jul-23 03:49 287 5 gusting 7 25.6
2016-Jul-23 03:44 288 3 gusting 7 26.1
2016-Jul-23 03:39 295 4 gusting 7 26.1
2016-Jul-23 03:34 286 3 gusting 6 26.1
2016-Jul-23 03:29 219 5 gusting 6 26.1
2016-Jul-23 03:24 238 4 gusting 7 26.1
2016-Jul-23 03:19 208 5 gusting 7 26.1
2016-Jul-23 03:14 192 5 gusting 6 26.1
2016-Jul-23 03:09 191 5 gusting 7 26.1
2016-Jul-23 03:03 189 5 gusting 7 26.1
2016-Jul-23 02:59 194 4 gusting 9 26.1
2016-Jul-23 02:54 208 6 gusting 11 26.1
2016-Jul-23 02:49 212 6 gusting 11 26.1
2016-Jul-23 02:44 177 6 gusting 10 26.1
2016-Jul-23 02:39 202 6 gusting 10 26.1
2016-Jul-23 02:34 182 6 gusting 10 26.1
2016-Jul-23 02:29 188 5 gusting 7 26.1
2016-Jul-23 02:24 219 5 gusting 7 26.1
2016-Jul-23 02:19 207 5 gusting 7 26.1
2016-Jul-23 02:14 202 6 gusting 8 26.1
2016-Jul-23 02:09 180 6 gusting 8 26.1
2016-Jul-23 02:04 201 6 gusting 8 26.1
2016-Jul-23 01:59 199 5 gusting 7 26.1
2016-Jul-23 01:54 202 5 gusting 7 26.1
2016-Jul-23 01:49 181 4 gusting 6 26.1
2016-Jul-23 01:44 187 4 gusting 6 26.1
2016-Jul-23 01:38 196 0 gusting 6 26.1
2016-Jul-23 01:34 167 1 gusting 5 26.1
2016-Jul-23 01:29 167 3 gusting 5 26.1
2016-Jul-23 01:24 174 2 gusting 5 26.1
2016-Jul-23 01:19 159 3 gusting 6 26.1
2016-Jul-23 01:14 163 4 gusting 6 26.1
2016-Jul-23 01:09 176 4 gusting 6 26.7
2016-Jul-23 01:04 173 5 gusting 7 26.7
2016-Jul-23 00:58 170 5 gusting 7 26.7
2016-Jul-23 00:54 181 4 gusting 6 26.7
2016-Jul-23 00:49 162 4 gusting 6 26.7
2016-Jul-23 00:44 175 4 gusting 7 26.7
2016-Jul-23 00:39 204 5 gusting 7 26.7
2016-Jul-23 00:34 182 5 gusting 7 26.7
2016-Jul-23 00:29 203 5 gusting 8 27.2
2016-Jul-23 00:24 205 6 gusting 9 27.2
2016-Jul-23 00:19 167 5 gusting 10 27.2
2016-Jul-23 00:14 207 6 gusting 10 27.2
2016-Jul-23 00:09 210 5 gusting 8 27.2
2016-Jul-23 00:04 194 5 gusting 7 27.2
2016-Jul-22 23:59 192 4 gusting 7 27.2
2016-Jul-22 23:54 210 5 gusting 7 27.2
2016-Jul-22 23:48 184 4 gusting 7 27.2
2016-Jul-22 23:44 205 4 gusting 7 27.2
2016-Jul-22 23:39 196 4 gusting 7 27.2
2016-Jul-22 23:34 194 5 gusting 8 27.2
2016-Jul-22 23:29 205 6 gusting 8 27.2
2016-Jul-22 23:24 200 5 gusting 8 27.2
2016-Jul-22 23:19 219 6 gusting 8 27.2
2016-Jul-22 23:14 213 5 gusting 8 26.7
2016-Jul-22 23:08 186 5 gusting 8 26.7
2016-Jul-22 23:03 202 5 gusting 8 26.7
2016-Jul-22 22:59 169 5 gusting 8 26.7
2016-Jul-22 22:54 217 4 gusting 6 26.7
2016-Jul-22 22:49 184 2 gusting 6 26.7
2016-Jul-22 22:44 213 3 gusting 6 26.7
2016-Jul-22 22:38 227 2 gusting 5 26.7
2016-Jul-22 22:34 227 3 gusting 5 26.7
2016-Jul-22 22:29 245 4 gusting 5 26.7
2016-Jul-22 22:24 244 3 gusting 5 26.7
2016-Jul-22 22:19 244 3 gusting 6 26.7
2016-Jul-22 22:13 221 3 gusting 5 26.7
2016-Jul-22 22:08 264 1 gusting 5 26.7
2016-Jul-22 22:04 165 1 gusting 5 26.7
2016-Jul-22 21:59 165 1 gusting 4 26.7
2016-Jul-22 21:54 165 2 gusting 5 26.7
2016-Jul-22 21:48 165 3 gusting 5 26.7
2016-Jul-22 21:44 165 2 gusting 5 26.7
2016-Jul-22 21:39 165 3 gusting 5 26.7
2016-Jul-22 21:34 170 3 gusting 5 26.7
2016-Jul-22 21:28 146 3 gusting 6 27.2
2016-Jul-22 21:24 174 3 gusting 6 27.2
2016-Jul-22 21:19 167 3 gusting 5 27.2
2016-Jul-22 21:14 145 2 gusting 5 27.2
2016-Jul-22 21:09 168 1 gusting 5 27.2
2016-Jul-22 21:04 169 3 gusting 5 27.2
2016-Jul-22 20:59 169 2 gusting 6 27.2
2016-Jul-22 20:53 163 4 gusting 8 27.2
2016-Jul-22 20:49 156 5 gusting 8 27.2
2016-Jul-22 20:44 177 3 gusting 8 27.2
2016-Jul-22 20:38 175 5 gusting 7 27.2
2016-Jul-22 20:34 154 3 gusting 6 27.2
2016-Jul-22 20:29 091 4 gusting 8 27.2
2016-Jul-22 20:24 128 5 gusting 8 27.2
2016-Jul-22 20:19 136 4 gusting 6 27.2
2016-Jul-22 20:14 117 5 gusting 6 27.2
2016-Jul-22 20:09 142 4 gusting 6 27.8
2016-Jul-22 20:03 119 4 gusting 6 27.8
2016-Jul-22 19:59 121 4 gusting 6 27.8
2016-Jul-22 19:54 139 3 gusting 6 27.8
2016-Jul-22 19:49 158 4 gusting 6 27.8
2016-Jul-22 19:43 152 4 gusting 6 27.8
2016-Jul-22 19:39 162 4 gusting 7 27.8
2016-Jul-22 19:34 124 4 gusting 7 27.8
2016-Jul-22 19:29 121 4 gusting 7 27.8
2016-Jul-22 19:24 143 3 gusting 6 28.3
2016-Jul-22 19:19 196 3 gusting 7 28.3
2016-Jul-22 19:14 144 5 gusting 7 28.3
2016-Jul-22 19:08 136 4 gusting 7 28.3
2016-Jul-22 19:04 135 5 gusting 7 28.3
2016-Jul-22 18:59 121 6 gusting 7 28.3
2016-Jul-22 18:54 125 4 gusting 6 28.3
2016-Jul-22 18:49 150 3 gusting 5 28.9
2016-Jul-22 18:44 129 3 gusting 6 28.9
2016-Jul-22 18:39 132 3 gusting 6 28.9
2016-Jul-22 18:34 138 4 gusting 6 28.9
2016-Jul-22 18:29 128 3 gusting 6 28.9
2016-Jul-22 18:24 112 4 gusting 6 29.4
2016-Jul-22 18:19 117 4 gusting 6 29.4
2016-Jul-22 18:14 111 3 gusting 6 29.4
2016-Jul-22 18:08 124 3 gusting 6 29.4
2016-Jul-22 18:04 147 4 gusting 7 30.0
2016-Jul-22 17:59 136 3 gusting 7 30.0
2016-Jul-22 17:54 136 3 gusting 8 30.0
2016-Jul-22 17:48 120 6 gusting 9 30.0
2016-Jul-22 17:44 137 6 gusting 8 30.0
2016-Jul-22 17:39 120 5 gusting 7 30.0
2016-Jul-22 17:34 114 5 gusting 8 30.0
2016-Jul-22 17:28 113 6 gusting 9 30.6
2016-Jul-22 17:24 115 6 gusting 9 30.6
2016-Jul-22 17:19 119 6 gusting 8 30.6
2016-Jul-22 17:14 136 5 gusting 7 30.6
2016-Jul-22 17:08 148 5 gusting 8 30.6
2016-Jul-22 17:04 098 4 gusting 9 30.6
2016-Jul-22 16:59 126 6 gusting 10 30.6
2016-Jul-22 16:54 149 4 gusting 8 30.6
2016-Jul-22 16:49 149 6 gusting 8 30.6
2016-Jul-22 16:44 124 5 gusting 7 30.6
2016-Jul-22 16:39 140 6 gusting 9 30.6
2016-Jul-22 16:34 138 6 gusting 10 30.6
2016-Jul-22 16:29 170 5 gusting 10 30.6
2016-Jul-22 16:24 130 5 gusting 8 31.1
2016-Jul-22 16:18 113 5 gusting 8 31.1
2016-Jul-22 16:14 147 4 gusting 10 31.1
2016-Jul-22 16:09 134 6 gusting 12 31.1
2016-Jul-22 16:03 115 7 gusting 12 31.1
2016-Jul-22 15:59 105 5 gusting 13 31.1
2016-Jul-22 15:54 121 7 gusting 15 31.1
2016-Jul-22 15:49 138 7 gusting 15 31.1
2016-Jul-22 15:44 112 7 gusting 13 31.1
2016-Jul-22 15:39 135 8 gusting 13 31.1
2016-Jul-22 15:34 080 6 gusting 13 31.1
2016-Jul-22 15:29 107 9 gusting 13 31.1
2016-Jul-22 15:23 089 7 gusting 13 31.1
2016-Jul-22 15:19 120 6 gusting 10 31.1
2016-Jul-22 15:14 157 6 gusting 12 31.1
2016-Jul-22 15:09 106 5 gusting 11 31.1
2016-Jul-22 15:04 109 6 gusting 10 31.1
2016-Jul-22 14:59 103 6 gusting 11 31.1
2016-Jul-22 14:54 101 6 gusting 11 31.1
2016-Jul-22 14:49 118 6 gusting 11 31.1
2016-Jul-22 14:44 109 8 gusting 11 31.1
2016-Jul-22 14:39 114 6 gusting 11 31.7
2016-Jul-22 14:34 107 6 gusting 10 31.7
2016-Jul-22 14:29 117 6 gusting 9 31.7
2016-Jul-22 14:24 107 6 gusting 7 31.7
2016-Jul-22 14:19 071 5 gusting 7 31.7
2016-Jul-22 14:13 030 4 gusting 9 31.7
2016-Jul-22 14:08 034 4 gusting 7 31.7
2016-Jul-22 14:03 080 4 gusting 9 32.2
2016-Jul-22 13:58 071 5 gusting 10 31.7
2016-Jul-22 13:54 049 7 gusting 10 31.7
2016-Jul-22 13:49 064 6 gusting 10 31.7
2016-Jul-22 13:44 061 6 gusting 9 31.7
2016-Jul-22 13:38 074 4 gusting 8 32.2
2016-Jul-22 13:34 123 4 gusting 8 32.2
2016-Jul-22 13:29 046 5 gusting 8 32.8
2016-Jul-22 13:24 059 6 gusting 11 32.2
2016-Jul-22 13:19 040 6 gusting 11 32.2
2016-Jul-22 13:14 065 6 gusting 9 32.8
2016-Jul-22 13:09 055 6 gusting 8 32.8
2016-Jul-22 13:04 339 5 gusting 10 32.8
2016-Jul-22 12:59 063 6 gusting 10 32.2
2016-Jul-22 12:54 063 5 gusting 8 32.8
2016-Jul-22 12:49 051 6 gusting 10 32.2
2016-Jul-22 12:44 041 6 gusting 10 32.2
2016-Jul-22 12:39 059 5 gusting 10 31.7
2016-Jul-22 12:34 056 8 gusting 12 31.1
2016-Jul-22 12:29 028 7 gusting 15 31.7
2016-Jul-22 12:24 104 7 gusting 15 31.1
2016-Jul-22 12:19 039 7 gusting 13 31.1
2016-Jul-22 12:14 017 9 gusting 13 31.1
2016-Jul-22 12:08 017 9 gusting 13 30.6
2016-Jul-22 12:04 032 9 gusting 13 31.1
2016-Jul-22 11:59 068 6 gusting 13 31.1
2016-Jul-22 11:54 026 8 gusting 13 30.6
2016-Jul-22 11:49 015 8 gusting 13 30.6
2016-Jul-22 11:44 017 7 gusting 13 31.1
2016-Jul-22 11:39 062 8 gusting 13 31.1
2016-Jul-22 11:34 029 6 gusting 12 31.1
2016-Jul-22 11:29 060 6 gusting 12 31.1
2016-Jul-22 11:24 051 7 gusting 12 31.1
2016-Jul-22 11:19 034 7 gusting 11 30.6
2016-Jul-22 11:14 029 7 gusting 12 30.6
2016-Jul-22 11:09 044 7 gusting 13 30.6
2016-Jul-22 11:04 040 6 gusting 13 30.6
2016-Jul-22 10:58 043 8 gusting 12 30.6
2016-Jul-22 10:53 059 6 gusting 12 30.6
2016-Jul-22 10:49 036 6 gusting 11 30.6
2016-Jul-22 10:44 011 8 gusting 12 30.0
2016-Jul-22 10:39 060 9 gusting 12 30.0
2016-Jul-22 10:34 024 6 gusting 11 30.0
2016-Jul-22 10:29 041 6 gusting 11 30.0
2016-Jul-22 10:24 034 6 gusting 10 30.0
2016-Jul-22 10:19 038 7 gusting 12 30.0
2016-Jul-22 10:14 034 7 gusting 12 30.0
2016-Jul-22 10:08 018 7 gusting 11 30.0
2016-Jul-22 10:04 044 6 gusting 10 30.0
2016-Jul-22 09:59 031 6 gusting 10 30.0
2016-Jul-22 09:54 050 6 gusting 10 30.0
2016-Jul-22 09:49 019 6 gusting 9 29.4
2016-Jul-22 09:44 055 6 gusting 9 30.0
2016-Jul-22 09:39 012 6 gusting 8 30.0
2016-Jul-22 09:34 068 6 gusting 8 30.0
2016-Jul-22 09:28 044 6 gusting 10 29.4
2016-Jul-22 09:24 028 6 gusting 10 29.4
2016-Jul-22 09:19 028 6 gusting 10 29.4
2016-Jul-22 09:14 044 6 gusting 10 29.4
2016-Jul-22 09:08 030 6 gusting 8 29.4
2016-Jul-22 09:04 050 4 gusting 8 29.4
2016-Jul-22 08:59 023 5 gusting 8 29.4
2016-Jul-22 08:54 061 6 gusting 10 29.4
2016-Jul-22 08:49 022 6 gusting 10 29.4
2016-Jul-22 08:44 028 6 gusting 10 29.4
2016-Jul-22 08:39 068 4 gusting 10 28.9
2016-Jul-22 08:33 024 6 gusting 9 29.4
2016-Jul-22 08:29 026 4 gusting 7 29.4
2016-Jul-22 08:24 029 5 gusting 7 29.4
2016-Jul-22 08:19 062 4 gusting 7 29.4
2016-Jul-22 08:14 024 5 gusting 7 29.4
2016-Jul-22 08:09 341 3 gusting 6 29.4
2016-Jul-22 08:03 011 5 gusting 6 29.4
2016-Jul-22 07:58 020 5 gusting 6 30.0
2016-Jul-22 07:54 026 5 gusting 6 30.0
2016-Jul-22 07:49 355 4 gusting 6 30.0
2016-Jul-22 07:44 355 2 gusting 5 30.0
2016-Jul-22 07:38 336 1 gusting 5 29.4
2016-Jul-22 07:33 355 2 gusting 4 28.9
2016-Jul-22 07:29 269 28.9
2016-Jul-22 07:24 234 28.3
2016-Jul-22 07:19 234 0 gusting 2 28.3
2016-Jul-22 07:13 213 27.8
2016-Jul-22 07:08 217 27.8
2016-Jul-22 07:04 217 27.2
2016-Jul-22 06:58 218 1 gusting 5 27.2
2016-Jul-22 06:53 223 26.7
2016-Jul-22 06:49 217 26.7
2016-Jul-22 06:44 190 0 gusting 5 26.1
2016-Jul-22 06:39 190 3 gusting 5 26.1
2016-Jul-22 06:33 186 0 gusting 3 25.6
2016-Jul-22 06:29 186 25.6
2016-Jul-22 06:24 188 25.0
2016-Jul-22 06:19 188 25.0
2016-Jul-22 06:13 158 24.4
2016-Jul-22 06:08 158 0 gusting 4 24.4
2016-Jul-22 06:03 158 1 gusting 4 24.4
2016-Jul-22 05:58 189 2 gusting 5 24.4
2016-Jul-22 05:54 192 1 gusting 5 23.9
2016-Jul-22 05:49 173 0 gusting 4 23.9
2016-Jul-22 05:44 181 23.9
2016-Jul-22 05:39 214 0 gusting 5 23.3
2016-Jul-22 05:33 200 1 gusting 6 23.3
2016-Jul-22 05:29 206 2 gusting 6 23.3
2016-Jul-22 05:24 196 2 gusting 5 22.8
2016-Jul-22 05:19 196 22.8
2016-Jul-22 05:14 196 22.8
2016-Jul-22 05:09 196 22.8
2016-Jul-22 05:04 196 22.8
2016-Jul-22 04:59 196 22.8
2016-Jul-22 04:54 196 1 gusting 5 22.2
2016-Jul-22 04:49 230 2 gusting 5 22.2
2016-Jul-22 04:44 200 22.2
2016-Jul-22 04:38 200 1 gusting 3 22.2
2016-Jul-22 04:34 200 22.2
2016-Jul-22 04:29 200 0 gusting 4 22.2
2016-Jul-22 04:24 200 2 gusting 4 22.2
2016-Jul-22 04:19 200 1 gusting 3 22.2
2016-Jul-22 04:13 200 0 gusting 3 22.2
2016-Jul-22 04:08 200 1 gusting 2 22.2
2016-Jul-22 04:04 200 1 gusting 3 22.2
2016-Jul-22 03:59 200 1 gusting 4 22.2
2016-Jul-22 03:54 200 2 gusting 4 22.2
2016-Jul-22 03:48 200 2 gusting 4 22.8
2016-Jul-22 03:44 205 2 gusting 5 22.8
2016-Jul-22 03:39 192 3 gusting 5 22.8
2016-Jul-22 03:34 192 4 gusting 6 22.8
2016-Jul-22 03:28 193 3 gusting 5 22.8
2016-Jul-22 03:24 194 2 gusting 5 22.8
2016-Jul-22 03:19 194 3 gusting 5 22.8
2016-Jul-22 03:14 188 4 gusting 6 22.8
2016-Jul-22 03:08 197 4 gusting 6 22.8
2016-Jul-22 03:04 182 3 gusting 6 23.3
2016-Jul-22 02:59 188 3 gusting 6 23.3
2016-Jul-22 02:53 185 3 gusting 5 23.3
2016-Jul-22 02:49 185 4 gusting 5 23.3
2016-Jul-22 02:44 184 3 gusting 6 23.3
2016-Jul-22 02:39 186 3 gusting 6 23.3
2016-Jul-22 02:33 179 3 gusting 5 23.3
2016-Jul-22 02:29 166 4 gusting 5 23.3
2016-Jul-22 02:24 167 3 gusting 5 23.3
2016-Jul-22 02:19 185 3 gusting 5 23.3
2016-Jul-22 02:14 183 3 gusting 5 23.3
2016-Jul-22 02:08 186 3 gusting 5 23.3
2016-Jul-22 02:04 182 4 gusting 5 23.3
2016-Jul-22 01:58 184 4 gusting 6 23.3
2016-Jul-22 01:54 179 4 gusting 6 23.3
2016-Jul-22 01:49 186 4 gusting 5 23.3
2016-Jul-22 01:44 185 3 gusting 5 23.3
2016-Jul-22 01:39 190 3 gusting 5 23.3
2016-Jul-22 01:34 180 4 gusting 6 23.3
2016-Jul-22 01:29 186 3 gusting 5 23.3
2016-Jul-22 01:24 190 2 gusting 6 23.3
2016-Jul-22 01:19 213 4 gusting 6 22.8
2016-Jul-22 01:14 209 4 gusting 6 22.8
2016-Jul-22 01:08 219 4 gusting 7 22.8
2016-Jul-22 01:04 199 2 gusting 7 22.8
2016-Jul-22 00:59 208 4 gusting 6 22.8
2016-Jul-22 00:54 186 3 gusting 6 22.8
2016-Jul-22 00:49 185 3 gusting 5 22.2
2016-Jul-22 00:44 202 3 gusting 4 22.8
2016-Jul-22 00:38 178 3 gusting 5 22.2
2016-Jul-22 00:34 178 3 gusting 5 22.2
2016-Jul-22 00:29 186 1 gusting 3 22.2
2016-Jul-22 00:24 186 1 gusting 3 22.2
2016-Jul-22 00:19 186 1 gusting 3 22.2
2016-Jul-22 00:14 186 1 gusting 3 22.2
2016-Jul-22 00:09 186 2 gusting 4 22.2
2016-Jul-22 00:04 186 22.2
2016-Jul-21 23:59 170 3 gusting 5 22.2
2016-Jul-21 23:54 199 2 gusting 6 22.2
2016-Jul-21 23:49 186 3 gusting 6 22.2
2016-Jul-21 23:44 192 3 gusting 5 22.2
2016-Jul-21 23:38 198 4 gusting 5 22.2
2016-Jul-21 23:33 182 4 gusting 5 22.8
2016-Jul-21 23:28 190 4 gusting 5 22.8
2016-Jul-21 23:24 193 4 gusting 5 22.8
2016-Jul-21 23:19 183 3 gusting 5 22.8
2016-Jul-21 23:14 184 3 gusting 5 22.8
2016-Jul-21 23:08 173 3 gusting 5 22.8
2016-Jul-21 23:04 182 4 gusting 5 22.8
2016-Jul-21 22:59 182 3 gusting 5 22.8
2016-Jul-21 22:53 195 3 gusting 4 22.8
2016-Jul-21 22:49 171 2 gusting 5 22.8
2016-Jul-21 22:44 169 3 gusting 5 22.8
2016-Jul-21 22:39 171 3 gusting 4 22.8
2016-Jul-21 22:34 171 3 gusting 5 22.8
2016-Jul-21 22:29 167 3 gusting 5 23.3
2016-Jul-21 22:23 169 3 gusting 5 23.3
2016-Jul-21 22:18 164 4 gusting 5 23.3
2016-Jul-21 22:13 169 3 gusting 4 23.3
2016-Jul-21 22:08 174 3 gusting 4 23.3
2016-Jul-21 22:04 182 2 gusting 4 23.3
2016-Jul-21 21:59 182 2 gusting 4 23.3
2016-Jul-21 21:54 164 3 gusting 5 23.9
2016-Jul-21 21:49 161 3 gusting 5 23.9
2016-Jul-21 21:44 159 4 gusting 5 23.9
2016-Jul-21 21:39 161 3 gusting 5 23.9
2016-Jul-21 21:34 174 3 gusting 5 23.9
2016-Jul-21 21:29 171 3 gusting 5 24.4
2016-Jul-21 21:24 178 3 gusting 5 24.4
2016-Jul-21 21:19 175 2 gusting 4 25.0
2016-Jul-21 21:14 160 25.0
2016-Jul-21 21:08 148 1 gusting 2 25.0
2016-Jul-21 21:04 148 25.0
2016-Jul-21 20:59 148 25.0
2016-Jul-21 20:54 148 25.0
2016-Jul-21 20:49 148 2 gusting 3 25.6
2016-Jul-21 20:43 144 25.6
2016-Jul-21 20:39 144 1 gusting 2 25.6
2016-Jul-21 20:34 144 1 gusting 3 25.6
2016-Jul-21 20:29 144 0 gusting 2 25.6
2016-Jul-21 20:24 144 25.6
2016-Jul-21 20:19 144 1 gusting 2 26.1
2016-Jul-21 20:14 144 26.1
2016-Jul-21 20:08 144 26.1
2016-Jul-21 20:03 144 26.1
2016-Jul-21 19:58 144 26.1
2016-Jul-21 19:54 144 2 gusting 4 26.7
2016-Jul-21 19:49 163 2 gusting 4 26.7
2016-Jul-21 19:44 172 2 gusting 4 26.7
2016-Jul-21 19:39 172 3 gusting 4 27.2
2016-Jul-21 19:34 173 2 gusting 4 27.2
2016-Jul-21 19:28 157 2 gusting 4 27.2
2016-Jul-21 19:24 134 1 gusting 3 27.8
2016-Jul-21 19:19 134 27.8
2016-Jul-21 19:14 134 27.8
2016-Jul-21 19:09 134 27.8
2016-Jul-21 19:04 134 1 gusting 3 28.3
2016-Jul-21 18:59 131 28.3
2016-Jul-21 18:54 131 28.3
2016-Jul-21 18:49 131 28.3
2016-Jul-21 18:44 117 28.3
2016-Jul-21 18:39 117 3 gusting 4 28.3
2016-Jul-21 18:34 117 2 gusting 4 28.9
2016-Jul-21 18:29 140 0 gusting 5 28.9
2016-Jul-21 18:24 151 1 gusting 5 28.9
2016-Jul-21 18:19 172 1 gusting 4 28.9
2016-Jul-21 18:14 101 2 gusting 4 29.4
2016-Jul-21 18:09 108 1 gusting 4 29.4
2016-Jul-21 18:04 098 2 gusting 5 29.4
2016-Jul-21 17:59 119 1 gusting 6 29.4
2016-Jul-21 17:54 115 4 gusting 6 29.4
2016-Jul-21 17:48 126 4 gusting 6 29.4
2016-Jul-21 17:44 156 2 gusting 6 30.0
2016-Jul-21 17:39 153 4 gusting 6 30.0
2016-Jul-21 17:34 141 4 gusting 6 30.0
2016-Jul-21 17:29 138 2 gusting 6 30.0
2016-Jul-21 17:24 107 1 gusting 6 30.0
2016-Jul-21 17:18 123 4 gusting 6 30.0
2016-Jul-21 17:14 150 5 gusting 6 30.6
2016-Jul-21 17:09 101 4 gusting 5 30.6
2016-Jul-21 17:04 063 1 gusting 5 30.6
2016-Jul-21 16:59 074 2 gusting 6 30.6
2016-Jul-21 16:53 115 4 gusting 6 30.6
2016-Jul-21 16:49 118 3 gusting 6 31.1
2016-Jul-21 16:44 110 3 gusting 6 31.7
2016-Jul-21 16:39 069 2 gusting 5 31.7
2016-Jul-21 16:33 101 1 gusting 5 31.7
2016-Jul-21 16:29 107 1 gusting 5 31.7
2016-Jul-21 16:24 097 3 gusting 5 31.7
2016-Jul-21 16:19 082 0 gusting 4 31.7
2016-Jul-21 16:13 067 31.7
2016-Jul-21 16:08 069 3 gusting 5 31.7
2016-Jul-21 16:04 066 2 gusting 5 31.7
2016-Jul-21 15:59 080 1 gusting 4 31.1
2016-Jul-21 15:54 090 1 gusting 4 31.1
2016-Jul-21 15:48 090 2 gusting 5 31.1
2016-Jul-21 15:44 107 3 gusting 5 31.1
2016-Jul-21 15:39 085 2 gusting 6 31.1
2016-Jul-21 15:34 134 3 gusting 6 31.1
2016-Jul-21 15:28 107 1 gusting 6 31.7
2016-Jul-21 15:24 121 4 gusting 6 31.1
2016-Jul-21 15:19 141 3 gusting 6 31.7
2016-Jul-21 15:14 134 4 gusting 6 32.2
2016-Jul-21 15:08 098 4 gusting 6 31.7
2016-Jul-21 15:04 085 2 gusting 6 32.2
2016-Jul-21 14:58 123 4 gusting 6 32.8
2016-Jul-21 14:54 134 3 gusting 8 33.3
2016-Jul-21 14:49 109 4 gusting 9 33.3
2016-Jul-21 14:44 065 6 gusting 9 33.3
2016-Jul-21 14:39 051 6 gusting 8 33.3
2016-Jul-21 14:34 041 5 gusting 7 33.3
2016-Jul-21 14:29 074 2 gusting 7 32.8
2016-Jul-21 14:24 078 4 gusting 7 32.8
2016-Jul-21 14:19 036 5 gusting 8 33.3
2016-Jul-21 14:14 057 4 gusting 8 33.9
2016-Jul-21 14:08 046 5 gusting 9 33.3
2016-Jul-21 14:04 066 6 gusting 9 33.3
2016-Jul-21 13:59 040 3 gusting 7 33.9
2016-Jul-21 13:54 348 4 gusting 7 33.9
2016-Jul-21 13:48 049 4 gusting 7 33.9
2016-Jul-21 13:44 042 5 gusting 7 33.3
2016-Jul-21 13:39 058 3 gusting 6 33.3
2016-Jul-21 13:34 080 1 gusting 6 32.8
2016-Jul-21 13:29 096 4 gusting 9 32.8
2016-Jul-21 13:24 038 6 gusting 9 32.2
2016-Jul-21 13:19 063 6 gusting 9 32.8
2016-Jul-21 13:14 051 5 gusting 10 32.2
2016-Jul-21 13:08 029 6 gusting 10 31.1
2016-Jul-21 13:03 071 7 gusting 13 31.1
2016-Jul-21 12:59 043 8 gusting 13 30.6
2016-Jul-21 12:54 081 8 gusting 12 30.6
2016-Jul-21 12:49 030 7 gusting 12 31.1
2016-Jul-21 12:44 049 7 gusting 12 31.7
2016-Jul-21 12:39 051 7 gusting 11 31.7
2016-Jul-21 12:34 040 6 gusting 13 31.1
2016-Jul-21 12:29 038 7 gusting 13 31.1
2016-Jul-21 12:24 067 9 gusting 12 31.1
2016-Jul-21 12:19 043 7 gusting 12 31.1
2016-Jul-21 12:13 069 7 gusting 10 31.7
2016-Jul-21 12:08 040 6 gusting 10 32.2
2016-Jul-21 12:04 063 6 gusting 9 32.2
2016-Jul-21 11:59 062 6 gusting 10 32.2
2016-Jul-21 11:54 050 6 gusting 10 32.2
2016-Jul-21 11:48 028 6 gusting 8 32.2
2016-Jul-21 11:44 028 5 gusting 8 32.2
2016-Jul-21 11:39 020 6 gusting 8 32.2
2016-Jul-21 11:34 041 5 gusting 7 32.2
2016-Jul-21 11:29 039 5 gusting 7 32.2
2016-Jul-21 11:24 053 6 gusting 8 31.7
2016-Jul-21 11:19 045 6 gusting 8 31.7
2016-Jul-21 11:14 024 6 gusting 8 31.7
2016-Jul-21 11:08 049 5 gusting 9 31.1
2016-Jul-21 11:04 035 6 gusting 9 31.1
2016-Jul-21 10:59 045 6 gusting 9 30.6
2016-Jul-21 10:54 051 5 gusting 9 31.1
2016-Jul-21 10:49 042 6 gusting 9 30.6
2016-Jul-21 10:44 048 6 gusting 9 30.6
2016-Jul-21 10:39 065 6 gusting 9 30.0
2016-Jul-21 10:34 064 6 gusting 9 30.0
2016-Jul-21 10:29 047 5 gusting 8 30.0
2016-Jul-21 10:24 029 6 gusting 8 30.0
2016-Jul-21 10:19 045 6 gusting 8 30.0
2016-Jul-21 10:13 042 4 gusting 8 29.4
2016-Jul-21 10:08 042 6 gusting 8 29.4
2016-Jul-21 10:04 053 6 gusting 9 29.4
2016-Jul-21 09:59 038 5 gusting 9 29.4
2016-Jul-21 09:54 044 6 gusting 9 28.9
2016-Jul-21 09:48 038 6 gusting 9 29.4
2016-Jul-21 09:44 028 6 gusting 9 28.9
2016-Jul-21 09:39 046 6 gusting 7 29.4
2016-Jul-21 09:34 043 4 gusting 7 29.4
2016-Jul-21 09:29 017 5 gusting 7 29.4
2016-Jul-21 09:24 031 5 gusting 7 28.9
2016-Jul-21 09:19 067 5 gusting 7 28.9
2016-Jul-21 09:14 017 4 gusting 6 29.4
2016-Jul-21 09:08 038 4 gusting 7 29.4
2016-Jul-21 09:04 013 5 gusting 8 28.9